Redmond, OR

9:52 AM PST on December 16, 2017 (GMT -0800)
Roberts Field Airport

Weather History for KRDM - December, 2012

Change the Weather History Date:

Thursday, December 6, 2012

  Actual Average Record
Temperature  
Mean Temperature 32 °F 31 °F  
Max Temperature 40 °F 41 °F 63 °F (2015)
Min Temperature 23 °F 21 °F -2 °F (1972)
Degree Days  
Heating Degree Days 33 34  
Month to date heating degree days 145 200  
Since 1 July heating degree days 1678 1974  
Cooling Degree Days 0 0  
Month to date cooling degree days 0 0  
Year to date cooling degree days 206 222  
Moisture  
Dew Point 25 °F    
Average Humidity 77    
Maximum Humidity 100    
Minimum Humidity 54    
Precipitation  
Precipitation 0.00 in 0.04 in 1.01 in (1983)
Month to date precipitation 0.71 0.24  
Year to date precipitation 10.65 7.98  
Sea Level Pressure  
Sea Level Pressure 30.19 in    
Wind  
Wind Speed 3 mph (South)    
Max Wind Speed 10 mph    
Max Gust Speed 12 mph    
Visibility 10 miles    
Events      
T = Trace of Precipitation, MM = Missing Value Source: NWS Daily Summary

Daily Weather History Graph

Daily Weather History Graph

Search for Another Location

Airport or City:

Trip Planner

Search our weather history database for the weather conditions in past years. The results will help you decide how hot, cold, wet, or windy it might be!

Date:

Astronomy

Dec. 06, 2012 Rise Set
Actual Time 7:26 AM PST 4:25 PM PST
Civil Twilight 6:53 AM PST 4:58 PM PST
Nautical Twilight 6:16 AM PST 5:35 PM PST
Astronomical Twilight 5:41 AM PST 6:10 PM PST
Moon No Moon Rise 12:08 PM PST (12/6)
Length of Visible Light 10h 05m
Length of Day
8h 59m
Waning Gibbous, 48% of the Moon is Illuminated
Dec 6
Waning Gibbous
Dec 13
New
Dec 19
First Quarter
Dec 28
Full
Jan 4
Last Quarter

Hourly Weather History & Observations

Time (PST) Temp. Windchill Dew Point Humidity Pressure Visibility Wind Dir Wind Speed Gust Speed Precip Events Conditions
12:56 AM 25.0 °F 19.3 °F 24.1 °F 96% 30.20 in 10.0 mi SSE 4.6 mph - N/A   Partly Cloudy
1:08 AM 26.6 °F 20.0 °F 24.8 °F 93% 30.15 in 10.0 mi South 5.8 mph - N/A   Mostly Cloudy
1:36 AM 26.6 °F - 24.8 °F 93% 30.14 in 10.0 mi Calm Calm - N/A   Partly Cloudy
1:56 AM 26.1 °F 21.9 °F 23.0 °F 88% 30.18 in 10.0 mi South 3.5 mph - N/A   Clear
2:56 AM 25.0 °F 20.7 °F 23.0 °F 92% 30.19 in 10.0 mi SSE 3.5 mph - N/A   Clear
3:56 AM 25.0 °F - 23.0 °F 92% 30.19 in 10.0 mi Calm Calm - N/A   Clear
4:56 AM 25.0 °F - 23.0 °F 92% 30.19 in 10.0 mi Calm Calm - N/A   Clear
5:56 AM 24.1 °F - 21.9 °F 91% 30.19 in 10.0 mi Calm Calm - N/A   Clear
6:56 AM 26.1 °F 21.9 °F 23.0 °F 88% 30.20 in 10.0 mi WSW 3.5 mph - N/A   Clear
7:56 AM 27.0 °F - 24.1 °F 89% 30.21 in 10.0 mi Calm Calm - N/A   Scattered Clouds
8:56 AM 28.9 °F - 26.1 °F 89% 30.22 in 10.0 mi Calm Calm - N/A   Scattered Clouds
9:56 AM 30.9 °F - 28.9 °F 92% 30.23 in 10.0 mi Calm Calm - N/A   Overcast
10:56 AM 34.0 °F 31.0 °F 28.9 °F 82% 30.23 in 10.0 mi SSE 3.5 mph - N/A   Scattered Clouds
11:56 AM 36.0 °F - 26.1 °F 67% 30.21 in 10.0 mi Calm Calm - N/A   Clear
12:56 PM 39.0 °F 36.8 °F 27.0 °F 62% 30.18 in 10.0 mi Variable 3.5 mph - N/A   Partly Cloudy
1:56 PM 39.0 °F - 27.0 °F 62% 30.17 in 10.0 mi Calm Calm - N/A   Clear
2:56 PM 39.9 °F 35.8 °F 24.1 °F 53% 30.17 in 10.0 mi NW 5.8 mph - N/A   Clear
3:56 PM 39.0 °F - 24.1 °F 55% 30.17 in 10.0 mi Calm Calm - N/A   Clear
4:56 PM 30.9 °F 26.2 °F 25.0 °F 79% 30.19 in 10.0 mi South 4.6 mph - N/A   Clear
5:56 PM 30.9 °F - 25.0 °F 79% 30.19 in 10.0 mi Calm Calm - N/A   Partly Cloudy
6:56 PM 30.0 °F 26.5 °F 25.0 °F 82% 30.20 in 10.0 mi SW 3.5 mph - N/A   Clear
7:56 PM 32.0 °F 26.4 °F 24.1 °F 73% 30.20 in 10.0 mi South 5.8 mph - N/A   Clear
8:56 PM 30.9 °F 25.2 °F 24.1 °F 76% 30.20 in 10.0 mi SSE 5.8 mph - N/A   Clear
9:56 PM 30.0 °F 23.2 °F 24.1 °F 79% 30.20 in 10.0 mi South 6.9 mph - N/A   Clear
10:56 PM 30.9 °F 22.2 °F 24.1 °F 76% 30.20 in 10.0 mi South 10.4 mph - N/A   Scattered Clouds
11:56 PM 30.0 °F 22.4 °F 24.1 °F 79% 30.19 in 10.0 mi South 8.1 mph - N/A   Clear